Charleston, SC

2:44 AM EDT on August 27, 2016 (GMT -0400)
Charleston Executive

Weather History for KJZI - March, 2014

Change the Weather History Date:

Saturday, March 15, 2014

  Actual Average (KCHS) Record (KCHS)
Temperature  
Mean Temperature 56 °F 58 °F  
Max Temperature 66 °F 69 °F 87 °F (1967)
Min Temperature 46 °F 47 °F 25 °F (1993)
Degree Days  
Heating Degree Days 9 8  
Month to date heating degree days 140  
Since 1 July heating degree days 1776  
Cooling Degree Days 0 1  
Month to date cooling degree days 13  
Year to date cooling degree days 20  
Growing Degree Days 6 (Base 50)    
Moisture  
Dew Point 46 °F    
Average Humidity 65    
Maximum Humidity 88    
Minimum Humidity 32    
Precipitation  
Precipitation 0.00 in 0.13 in 1.47 in (2001)
Month to date precipitation 1.77  
Year to date precipitation 8.44  
Sea Level Pressure  
Sea Level Pressure 30.12 in    
Wind  
Wind Speed 3 mph (SW)    
Max Wind Speed 10 mph    
Max Gust Speed -    
Visibility 10 miles    
Events      
T = Trace of Precipitation, MM = Missing Value Source: NWS Daily Summary

Daily Weather History Graph

Daily Weather History Graph

Search for Another Location

Airport or City:

Trip Planner

Search our weather history database for the weather conditions in past years. The results will help you decide how hot, cold, wet, or windy it might be!

Date:

Astronomy

Mar. 15, 2014 Rise Set
Actual Time 7:30 AM EDT 7:27 PM EDT
Civil Twilight 7:05 AM EDT 7:52 PM EDT
Nautical Twilight 6:37 AM EDT 8:21 PM EDT
Astronomical Twilight 6:08 AM EDT 8:49 PM EDT
Moon 6:46 PM EDT (3/15) 6:39 AM EDT (3/15)
Length of Visible Light 12h 46m
Length of Day
11h 57m
Waxing Gibbous, 99% of the Moon is Illuminated
Mar 15
Waxing Gibbous
Mar 16
Full
Mar 23
Last Quarter
Mar 30
New
Apr 7
First Quarter

Hourly Weather History & Observations

Time (EDT) Temp. Dew Point Humidity Pressure Visibility Wind Dir Wind Speed Gust Speed Precip Events Conditions
12:15 AM 50.0 °F 44.6 °F 82% 30.20 in 10.0 mi Calm Calm - 0.00 in   Clear
12:35 AM 48.2 °F 42.8 °F 82% 30.20 in 10.0 mi Calm Calm - 0.00 in   Clear
12:55 AM 46.4 °F 42.8 °F 87% 30.18 in 10.0 mi Calm Calm - 0.00 in   Clear
1:15 AM 48.2 °F 44.6 °F 87% 30.17 in 9.0 mi Calm Calm - 0.00 in   Clear
1:35 AM 51.8 °F 46.4 °F 82% 30.17 in 10.0 mi Calm Calm - 0.00 in   Clear
1:55 AM 51.8 °F 46.4 °F 82% 30.17 in 10.0 mi Calm Calm - 0.00 in   Clear
2:15 AM 51.8 °F 46.4 °F 82% 30.16 in 10.0 mi Calm Calm - 0.00 in   Clear
2:35 AM 51.8 °F 46.4 °F 82% 30.16 in 10.0 mi Calm Calm - 0.00 in   Clear
2:55 AM 51.8 °F 48.2 °F 88% 30.15 in 10.0 mi Calm Calm - 0.00 in   Clear
3:15 AM 55.4 °F 51.8 °F 88% 30.15 in 10.0 mi WSW 3.5 mph - 0.00 in   Partly Cloudy
3:35 AM 57.2 °F 51.8 °F 82% 30.15 in 10.0 mi SW 4.6 mph - 0.00 in   Partly Cloudy
3:55 AM 57.2 °F 51.8 °F 82% 30.14 in 10.0 mi WSW 3.5 mph - 0.00 in   Clear
4:15 AM 57.2 °F 51.8 °F 82% 30.14 in 10.0 mi Calm Calm - 0.00 in   Clear
4:35 AM 55.4 °F 51.8 °F 88% 30.13 in 10.0 mi Calm Calm - 0.00 in   Clear
4:55 AM 55.4 °F 51.8 °F 88% 30.13 in 10.0 mi Calm Calm - 0.00 in   Clear
5:15 AM 55.4 °F 51.8 °F 88% 30.14 in 10.0 mi Calm Calm - 0.00 in   Clear
5:35 AM 55.4 °F 51.8 °F 88% 30.13 in 10.0 mi Calm Calm - 0.00 in   Partly Cloudy
5:55 AM 57.2 °F 51.8 °F 82% 30.13 in 10.0 mi WSW 5.8 mph - 0.00 in   Clear
6:15 AM 57.2 °F 51.8 °F 82% 30.13 in 10.0 mi SW 9.2 mph - 0.00 in   Mostly Cloudy
6:35 AM 57.2 °F 51.8 °F 82% 30.13 in 10.0 mi SW 10.4 mph - 0.00 in   Overcast
6:55 AM 57.2 °F 51.8 °F 82% 30.14 in 10.0 mi WSW 8.1 mph - 0.00 in   Overcast
7:15 AM 57.2 °F 51.8 °F 82% 30.14 in 10.0 mi WSW 8.1 mph - 0.00 in   Mostly Cloudy
7:35 AM 59.0 °F 51.8 °F 77% 30.14 in 10.0 mi WSW 6.9 mph - 0.00 in   Mostly Cloudy
7:55 AM 59.0 °F 51.8 °F 77% 30.14 in 10.0 mi WSW 5.8 mph - 0.00 in   Mostly Cloudy
8:15 AM 59.0 °F 51.8 °F 77% 30.15 in 10.0 mi West 4.6 mph - 0.00 in   Scattered Clouds
8:35 AM 59.0 °F 51.8 °F 77% 30.15 in 10.0 mi SW 4.6 mph - 0.00 in   Scattered Clouds
8:55 AM 59.0 °F 53.6 °F 82% 30.16 in 10.0 mi WSW 3.5 mph - 0.00 in   Partly Cloudy
9:15 AM 59.0 °F 53.6 °F 82% 30.15 in 10.0 mi WSW 4.6 mph - 0.00 in   Clear
9:35 AM 60.8 °F 53.6 °F 77% 30.15 in 10.0 mi WSW 4.6 mph - 0.00 in   Clear
9:55 AM 60.8 °F 51.8 °F 72% 30.16 in 10.0 mi SSW 5.8 mph - 0.00 in   Partly Cloudy
10:15 AM 60.8 °F 51.8 °F 72% 30.16 in 10.0 mi WSW 4.6 mph - 0.00 in   Scattered Clouds
10:35 AM 62.6 °F 50.0 °F 63% 30.17 in 10.0 mi West 10.4 mph - 0.00 in   Scattered Clouds
10:55 AM 62.6 °F 48.2 °F 59% 30.18 in 10.0 mi West 9.2 mph - 0.00 in   Partly Cloudy
11:15 AM 62.6 °F 44.6 °F 52% 30.18 in 10.0 mi West 9.2 mph - 0.00 in   Partly Cloudy
11:35 AM 64.4 °F 44.6 °F 49% 30.18 in 10.0 mi WSW 9.2 mph - 0.00 in   Scattered Clouds
11:55 AM 64.4 °F 42.8 °F 45% 30.17 in 10.0 mi WSW 6.9 mph - 0.00 in   Scattered Clouds
12:15 PM 62.6 °F 42.8 °F 48% 30.16 in 10.0 mi SW 5.8 mph - 0.00 in   Scattered Clouds
12:35 PM 64.4 °F 39.2 °F 40% 30.15 in 10.0 mi WSW 4.6 mph - 0.00 in   Mostly Cloudy
12:55 PM 64.4 °F 39.2 °F 40% 30.14 in 10.0 mi WSW 3.5 mph - 0.00 in   Scattered Clouds
1:15 PM 66.2 °F 39.2 °F 37% 30.14 in 10.0 mi SW 6.9 mph - 0.00 in   Scattered Clouds
1:35 PM 66.2 °F 35.6 °F 32% 30.13 in 10.0 mi SW 8.1 mph - 0.00 in   Mostly Cloudy
1:55 PM 66.2 °F 37.4 °F 35% 30.12 in 10.0 mi SW 6.9 mph - 0.00 in   Mostly Cloudy
2:15 PM 66.2 °F 37.4 °F 35% 30.11 in 10.0 mi SSW 9.2 mph - 0.00 in   Scattered Clouds
2:35 PM 66.2 °F 42.8 °F 43% 30.10 in 10.0 mi SW 3.5 mph - 0.00 in   Mostly Cloudy
2:55 PM 66.2 °F 41.0 °F 40% 30.09 in 10.0 mi SSW 8.1 mph - 0.00 in   Scattered Clouds
3:15 PM 66.2 °F 41.0 °F 40% 30.09 in 10.0 mi SSW 6.9 mph - 0.00 in   Scattered Clouds
3:35 PM 64.4 °F 41.0 °F 42% 30.08 in 10.0 mi SW 8.1 mph - 0.00 in   Partly Cloudy
3:55 PM 64.4 °F 42.8 °F 45% 30.08 in 10.0 mi SSW 6.9 mph - 0.00 in   Partly Cloudy
4:15 PM 64.4 °F 42.8 °F 45% 30.07 in 10.0 mi SSW 8.1 mph - 0.00 in   Mostly Cloudy
4:35 PM 64.4 °F 39.2 °F 40% 30.07 in 10.0 mi SSW 9.2 mph - 0.00 in   Mostly Cloudy
4:55 PM 66.2 °F 39.2 °F 37% 30.06 in 10.0 mi SW 9.2 mph - 0.00 in   Mostly Cloudy
5:15 PM 64.4 °F 39.2 °F 40% 30.06 in 10.0 mi SW 8.1 mph - 0.00 in   Overcast
5:35 PM 62.6 °F 42.8 °F 48% 30.06 in 10.0 mi SSW 6.9 mph - 0.00 in   Mostly Cloudy
5:55 PM 62.6 °F 44.6 °F 52% 30.06 in 10.0 mi SSW 6.9 mph - 0.00 in   Overcast
6:15 PM 62.6 °F 42.8 °F 48% 30.06 in 10.0 mi SW 4.6 mph - 0.00 in   Mostly Cloudy
6:35 PM 62.6 °F 44.6 °F 52% 30.05 in 10.0 mi SSW 5.8 mph - 0.00 in   Clear
6:55 PM 60.8 °F 44.6 °F 55% 30.06 in 10.0 mi SSW 10.4 mph - 0.00 in   Clear
7:15 PM 60.8 °F 42.8 °F 52% 30.07 in 10.0 mi SW 6.9 mph - 0.00 in   Clear
7:35 PM 60.8 °F 42.8 °F 52% 30.07 in 10.0 mi Calm Calm - 0.00 in   Mostly Cloudy
7:55 PM 59.0 °F 42.8 °F 55% 30.06 in 10.0 mi SW 3.5 mph - 0.00 in   Scattered Clouds
8:15 PM 59.0 °F 42.8 °F 55% 30.06 in 10.0 mi SW 3.5 mph - 0.00 in   Partly Cloudy
8:35 PM 57.2 °F 42.8 °F 59% 30.07 in 10.0 mi Calm Calm - 0.00 in   Clear
8:55 PM 55.4 °F 42.8 °F 63% 30.07 in 9.0 mi Calm Calm - 0.00 in   Clear
9:15 PM 53.6 °F 44.6 °F 72% 30.07 in 10.0 mi Calm Calm - 0.00 in   Clear
9:35 PM 51.8 °F 44.6 °F 76% 30.07 in 10.0 mi Calm Calm - 0.00 in   Clear
9:55 PM 51.8 °F 44.6 °F 76% 30.08 in 10.0 mi Calm Calm - 0.00 in   Clear
10:15 PM 53.6 °F 44.6 °F 72% 30.08 in 10.0 mi Calm Calm - 0.00 in   Clear
10:35 PM 51.8 °F 44.6 °F 76% 30.08 in 10.0 mi Calm Calm - 0.00 in   Clear
10:55 PM 55.4 °F 44.6 °F 67% 30.07 in 10.0 mi Calm Calm - 0.00 in   Clear
11:15 PM 55.4 °F 46.4 °F 72% 30.07 in 10.0 mi Calm Calm - 0.00 in   Clear
11:35 PM 53.6 °F 46.4 °F 77% 30.07 in 10.0 mi SW 4.6 mph - 0.00 in   Clear
11:55 PM 51.8 °F 46.4 °F 82% 30.08 in 10.0 mi Calm Calm - 0.00 in   Clear